Regional Weather Roundup
Issued by NWS

Home | Current Version | Previous Version | Text Only | Print | Product List | Glossary Off
Versions: 1 2 3 4 5 6 7 8 9 10 11 12 13 14 15 16 17 18 19 20 21 22 23 24 25 26 27 28 29 30 31 32 33 34 35 36 37 38 39 40 41 42 43 44 45 46 47 48 49 50

000
ASUS43 KMKX 191511
RWRWI

WISCONSIN REGIONAL WEATHER ROUNDUP
NATIONAL WEATHER SERVICE MILWAUKEE/SULLIVAN WI
1000 AM CDT TUE SEP 19 2017

NOTE: "FAIR" INDICATES FEW OR NO CLOUDS BELOW 12,000 FEET WITH NO
SIGNIFICANT WEATHER AND/OR OBSTRUCTIONS TO VISIBILITY.

WIZ001-002-006>008-014>016-023>028-191600-
NORTHWEST WISCONSIN

CITY           SKY/WX    TMP DP  RH WIND       PRES   REMARKS
SUPERIOR ARPT  CLOUDY    62  58  84 CALM      29.96S
ASHLAND        PTSUNNY   64  53  67 S6        29.98S
HAYWARD        PTSUNNY   62  54  74 S9        29.98R
SIREN          CLOUDY    63  57  80 S10       29.95S
CUMBERLAND     PTSUNNY   61  55  82 SE9       29.96F
RICE LAKE      SUNNY     63  56  79 SE12      29.98F
CHETEK         PTSUNNY   62  57  83 SE7       29.97F
LADYSMITH      CLOUDY    63  56  77 SE6       30.02R
EAU CLAIRE     SUNNY     63  56  78 SE7       29.97S
MENOMONIE      SUNNY     64  58  81 E8        29.96F
NEW RICHMOND   MOSUNNY   66  58  75 SE8       29.94S
OSCEOLA        MOSUNNY   66  63  88 SE8       29.96S
$$

WIZ003>005-009-010-017-018-191600-
NORTH CENTRAL WISCONSIN

CITY           SKY/WX    TMP DP  RH WIND       PRES   REMARKS
MANITOWISH WTR SUNNY     62  56  79 SE10      30.02S
ARBOR VITAE    SUNNY     63  56  77 SE8       30.02S
WOODRUFF       SUNNY     63  56  77 SE8       30.02S
RHINELANDER    SUNNY     63  56  78 SE8       30.04S
EAGLE RIVER    SUNNY     63  53  71 SE3       30.04R
LAND O LAKES   SUNNY     62  55  76 SE7       30.05S
PHILLIPS       SUNNY     61  55  80 SE7       30.00S
TOMAHAWK         N/A     63  55  73 SE7       30.03R
MEDFORD        MOSUNNY   59  54  84 SE6       30.01S
MERRILL        CLOUDY    63  57  82 SE6       30.03S
$$

WIZ029-030-035-036-043>047-191600-
CENTRAL WISCONSIN

CITY           SKY/WX    TMP DP  RH WIND       PRES   REMARKS
WAUSAU         MOSUNNY   63  56  78 E8        30.01S
MOSINEE        PTSUNNY   63  57  82 E6        30.03S
MARSHFIELD     SUNNY     64  56  75 E8        30.01R
STEVENS POINT  PTSUNNY   64  58  81 E7        30.02S
WAUPACA        SUNNY     69  59  72 CALM      30.01S
WAUTOMA        SUNNY     66  58  75 NE3       30.01R
WISC RAPIDS    SUNNY     67  56  67 SE7       30.01S
CAMP DOUGLAS   MOSUNNY   66  57  72 SE3       29.99S
$$

WIZ011>013-019>022-031-037>040-048>050-191600-
NORTHEAST WISCONSIN

CITY           SKY/WX    TMP DP  RH WIND       PRES   REMARKS
ANTIGO         CLOUDY    60  57  89 SE7       30.05R
SHAWANO        CLOUDY    65  60  84 E5        30.02S
OCONTO         CLOUDY    65  61  85 E7        30.03S
STURGEON BAY   PTSUNNY   65  59  81 E9        30.04R
GREEN BAY      CLOUDY    67  63  87 SE9       30.02R
MANITOWOC      CLOUDY    64  62  93 E7        30.03R
APPLETON       PTSUNNY   68  57  68 SE6       30.00S
CLINTONVILLE   CLOUDY    64  59  82 E7        30.02S
OSHKOSH        PTSUNNY   65  61  87 E9        30.00S
$$

WIZ032>034-041-042-053>061-191600-
SOUTHWEST WISCONSIN

CITY           SKY/WX    TMP DP  RH WIND       PRES   REMARKS
LA CROSSE      SUNNY     66  58  75 E7        29.97R
SPARTA         SUNNY     65  58  77 E6        29.98F
VIROQUA        SUNNY     64  60  85 SE5       29.98S
BOSCOBEL       SUNNY     69  58  67 VRB3      29.97S
PRAIRIE DU CHI SUNNY     66  57  72 E3        29.96S
PLATTEVILLE    SUNNY     67  63  87 E5        29.99
$$

WIZ056-057-062-063-064-067-068-191600-
SOUTH CENTRAL WISCONSIN

CITY           SKY/WX    TMP DP  RH WIND       PRES   REMARKS
REEDSBURG      SUNNY     65  58  77 CALM      29.99S
BARABOO/DELLS  SUNNY     65  55  69 E6        30.00R
LONE ROCK      SUNNY     67  60  78 SE5       29.99R
MINERAL POINT  SUNNY     70  63  78 CALM      29.99R
MADISON        MOSUNNY   68  58  70 NE3       29.99R
MIDDLETON      SUNNY     67  58  73 E5        30.00S
WATERTOWN      SUNNY     70  59  68 E8        29.99S
MONROE         PTSUNNY   68  59  73 CALM      29.99R
JANESVILLE     PTSUNNY   70  61  73 VRB6      29.98R
$$

WIZ051-052-058>065-066-070>072-191600-
SOUTHEAST WISCONSIN

CITY           SKY/WX    TMP DP  RH WIND       PRES   REMARKS
MILWAUKEE      MOSUNNY   73  64  73 NE5       29.99R
WAUKESHA       PTSUNNY   68  63  83 E7        30.01R
MILWAUKEE/TIMM PTSUNNY   70  61  73 E3        30.00R
RACINE         MOSUNNY   73  66  78 VRB3      30.00R
BURLINGTON     MOSUNNY   68  65  89 NE6       29.98F
KENOSHA        PTSUNNY   71  65  81 NE3       29.98R
FOND DU LAC    SUNNY     69  60  73 E5        30.00S
SHEBOYGAN      CLOUDY    67  64  90 E7        30.01R
WEST BEND        N/A     68  63  83 E3        30.01R
JUNEAU         SUNNY     69  59  71 E5        30.01R
$$

LSZ147-162-191600-
LAKE SUPERIOR

STATION/POSITION TIME  TEMP    WIND        PRES    WAVE
                       AIR SEA DIR/SP/G            HT/PER
                 (UTC) (F)     (DEG/KT/KT) (MB)    (FT/S)
W MID LAKE BUOY  1450   57 55  150/  8/ 10 1015.9R   1/ 3
DEVILS ISLAND    1500   60     120/  6/  7 1015.2R
SAXON HARBOR     1440   64     190/  4/  8 1014.6S
$$

LMZ867-665-643>646-191600-
LAKE MICHIGAN

STATION/POSITION TIME  TEMP    WIND        PRES    WAVE
                       AIR SEA DIR/SP/G            HT/PER
                 (UTC) (F)     (DEG/KT/KT) (MB)    (FT/S)
S GREEN BAY BUOY 1500   65 66  130/ 12/ 16 1016.3
N MID LAKE BUOY  1450   63 64  120/ 12/ 14 1018.1R   2/ 4
NORTHPORT PIER   1440   65     120/  9/ 11 1017.3R
KEWAUNEE LAKESHO 1442   63      70/  2/  4 1016.1R
PORT WASHINGTON  1440   68     100/  7/  9 1016.6R
ATWATER BUOY     1409   68 67  130/  6/  6 1015.7R
MILWAUKEE LAKESH 1450   74      80/  2/  2   N/A
S MID LAKE BUOY  1450   67 68   80/ 10/ 12 1014.9R   1/ 3
KENOSHA   LAKESH 1500   70     120/  3/  3 1015.2
$$

TC  - TEMPERATURE IN CELSIUS
VSB - VISIBILITY IN STATUTE MILES
WCI - WIND CHILL INDEX
HX  - HEAT INDEX




USA.gov is the U.S. government's official web portal to all federal, state and local government web resources and services.